Location: Blanot
(47.1713°N, 4.2340°E)
Time: 13:21:53
(UTC+00:00)

X-37B - Pass Details

Date: 12 March 2021
Orbit: 380 x 394 km, 45.0° (Epoch: 07 April)

Event Time Altitude Azimuth Distance (km) Brightness Sun altitude
Rises 18:16:57 0° 203° (SSW) 2,259 4.7 -6.3°
Reaches altitude 10° 18:20:04 10° 169° (S) 1,413 3.3 -6.9°
Maximum altitude 18:21:17 12° 146° (SE) 1,318 2.9 -7.1°
Drops below altitude 10° 18:22:31 10° 124° (ESE) 1,420 2.9 -7.3°
Enters shadow 18:23:06 - 115° (ESE) 1,531 3.0 -7.4°
